Time,TemperatureF,DewpointF,PressureIn,WindDirection,WindDirectionDegrees,WindSpeedMPH,WindSpeedGustMPH,Humidity,HourlyPrecipIn,Conditions,Clouds,dailyrainin,SoftwareType,DateUTC
2016-02-10 00:02:00,20.3,10.0,29.92,NW,304,0.0,10.0,64,0.00,,,0.00,meteohub,2016-02-10 05:02:00,
2016-02-10 00:07:00,20.1,10.2,29.92,NW,309,1.0,10.0,65,0.00,,,0.00,meteohub,2016-02-10 05:07:00,
2016-02-10 00:12:00,19.9,10.0,29.92,WSW,243,3.0,5.0,65,0.00,,,0.00,meteohub,2016-02-10 05:12:00,
2016-02-10 00:17:00,19.9,9.7,29.92,SE,135,0.0,5.0,64,0.00,,,0.00,meteohub,2016-02-10 05:17:00,
2016-02-10 00:22:00,19.8,9.9,29.93,ESE,114,1.0,5.0,65,0.00,,,0.00,meteohub,2016-02-10 05:22:00,
2016-02-10 00:27:00,19.8,9.5,29.93,NE,34,0.0,4.0,64,0.00,,,0.00,meteohub,2016-02-10 05:27:00,
2016-02-10 00:32:00,19.8,9.5,29.92,North,1,0.0,5.0,64,0.00,,,0.00,meteohub,2016-02-10 05:32:00,
2016-02-10 00:37:00,19.6,9.7,29.92,NNW,343,2.0,5.0,65,0.00,,,0.00,meteohub,2016-02-10 05:37:00,
2016-02-10 00:42:00,19.6,9.7,29.92,NE,47,0.0,5.0,65,0.00,,,0.00,meteohub,2016-02-10 05:42:00,
2016-02-10 00:47:00,19.4,9.5,29.92,NW,311,0.0,3.0,65,0.00,,,0.00,meteohub,2016-02-10 05:47:00,
2016-02-10 00:52:00,19.4,9.9,29.92,NW,325,0.0,4.0,66,0.00,,,0.00,meteohub,2016-02-10 05:52:00,
2016-02-10 00:57:00,19.2,9.7,29.92,WNW,284,0.0,4.0,66,0.00,,,0.00,meteohub,2016-02-10 05:57:00,
2016-02-10 01:02:00,19.2,9.7,29.92,East,91,0.0,4.0,66,0.00,,,0.00,meteohub,2016-02-10 06:02:00,
2016-02-10 01:07:00,19.2,9.7,29.92,SE,146,0.0,2.0,66,0.00,,,0.00,meteohub,2016-02-10 06:07:00,
2016-02-10 01:12:00,19.2,10.0,29.92,SE,136,0.0,2.0,67,0.00,,,0.00,meteohub,2016-02-10 06:12:00,
2016-02-10 01:17:00,19.0,9.9,29.92,SW,217,0.0,2.0,67,0.00,,,0.00,meteohub,2016-02-10 06:17:00,
2016-02-10 01:22:00,19.0,9.9,29.92,NW,311,0.0,2.0,67,0.00,,,0.00,meteohub,2016-02-10 06:22:00,
2016-02-10 01:27:00,18.9,10.0,29.92,NNW,335,0.0,2.0,68,0.00,,,0.00,meteohub,2016-02-10 06:27:00,
2016-02-10 01:32:00,18.7,10.2,29.92,WNW,283,0.0,2.0,69,0.00,,,0.00,meteohub,2016-02-10 06:32:00,
2016-02-10 01:37:00,18.9,10.4,29.92,West,266,1.0,2.0,69,0.00,,,0.00,meteohub,2016-02-10 06:37:00,
2016-02-10 01:42:00,18.9,10.4,29.92,WNW,292,0.0,3.0,69,0.00,,,0.00,meteohub,2016-02-10 06:42:00,
2016-02-10 01:47:00,18.7,10.2,29.92,NNW,334,0.0,4.0,69,0.00,,,0.00,meteohub,2016-02-10 06:47:00,
2016-02-10 01:52:00,18.1,10.0,29.92,NNE,25,0.0,4.0,70,0.00,,,0.00,meteohub,2016-02-10 06:52:00,
2016-02-10 01:57:00,18.0,10.2,29.92,ENE,64,0.0,2.0,71,0.00,,,0.00,meteohub,2016-02-10 06:57:00,
2016-02-10 02:02:00,17.8,10.2,29.92,ENE,64,0.0,2.0,72,0.00,,,0.00,meteohub,2016-02-10 07:02:00,
2016-02-10 02:07:00,17.6,10.0,29.92,ENE,64,0.0,0.0,72,0.00,,,0.00,meteohub,2016-02-10 07:07:00,
2016-02-10 02:12:00,17.4,10.2,29.92,ENE,64,0.0,0.0,73,0.00,,,0.00,meteohub,2016-02-10 07:12:00,
2016-02-10 02:17:00,17.4,10.6,29.92,ENE,64,0.0,0.0,74,0.00,,,0.00,meteohub,2016-02-10 07:17:00,
2016-02-10 02:22:00,17.2,10.4,29.92,ENE,64,0.0,0.0,74,0.00,,,0.00,meteohub,2016-02-10 07:22:00,
2016-02-10 02:27:00,17.1,10.2,29.92,ENE,64,0.0,0.0,74,0.00,,,0.00,meteohub,2016-02-10 07:27:00,
2016-02-10 02:32:00,17.1,10.6,29.92,NNW,331,0.0,0.0,75,0.00,,,0.00,meteohub,2016-02-10 07:32:00,
2016-02-10 02:37:00,17.2,10.8,29.93,WNW,286,0.0,1.0,75,0.00,,,0.00,meteohub,2016-02-10 07:37:00,
2016-02-10 02:42:00,17.1,10.6,29.92,West,259,0.0,1.0,75,0.00,,,0.00,meteohub,2016-02-10 07:42:00,
2016-02-10 02:52:00,17.1,10.6,29.93,NNW,333,0.0,4.0,75,0.00,,,0.00,meteohub,2016-02-10 07:52:00,
2016-02-10 02:57:00,16.9,10.6,29.93,SSE,150,0.0,4.0,76,0.00,,,0.00,meteohub,2016-02-10 07:57:00,
2016-02-10 03:02:00,16.2,9.7,29.93,WSW,257,0.0,3.0,75,0.00,,,0.00,meteohub,2016-02-10 08:02:00,
2016-02-10 03:07:00,16.2,9.7,29.93,North,-9999,-999.9,3.0,75,0.00,,,0.00,meteohub,2016-02-10 08:07:00,
2016-02-10 07:59:00,15.1,8.1,29.99,North,-9999,-999.9,-999.0,73,-99.99,,,0.00,meteohub,2016-02-10 12:59:00,
2016-02-10 08:04:00,15.1,8.1,29.99,North,-9999,-999.9,-999.0,73,-99.99,,,0.00,meteohub,2016-02-10 13:04:00,
2016-02-10 08:09:00,15.1,8.1,29.99,West,262,0.0,-999.0,73,0.00,,,0.00,meteohub,2016-02-10 13:09:00,
2016-02-10 08:14:00,15.4,8.1,29.99,West,276,2.0,2.0,72,0.00,,,0.00,meteohub,2016-02-10 13:14:00,
2016-02-10 08:19:00,16.0,8.6,30.00,SSE,156,0.0,2.0,72,0.00,,,0.00,meteohub,2016-02-10 13:19:00,
2016-02-10 08:24:00,16.3,7.9,30.00,NW,325,1.0,2.0,69,0.00,,,0.00,meteohub,2016-02-10 13:24:00,
2016-02-10 08:29:00,16.5,8.4,30.00,West,269,3.0,4.0,70,0.00,,,0.00,meteohub,2016-02-10 13:29:00,
2016-02-10 08:34:00,16.7,8.1,30.00,West,281,3.0,7.0,68,0.00,,,0.00,meteohub,2016-02-10 13:34:00,
2016-02-10 08:39:00,17.1,7.7,30.01,West,274,4.0,7.0,66,0.00,,,0.00,meteohub,2016-02-10 13:39:00,
2016-02-10 08:44:00,17.2,7.9,30.01,ENE,77,0.0,8.0,66,0.00,,,0.00,meteohub,2016-02-10 13:44:00,
2016-02-10 08:49:00,18.0,8.6,30.01,WNW,301,0.0,8.0,66,0.00,,,0.00,meteohub,2016-02-10 13:49:00,
2016-02-10 08:54:00,18.1,8.1,30.01,NW,325,0.0,8.0,64,0.00,,,0.00,meteohub,2016-02-10 13:54:00,
2016-02-10 08:59:00,18.7,8.6,30.01,SSW,195,1.0,8.0,64,0.00,,,0.00,meteohub,2016-02-10 13:59:00,
2016-02-10 09:04:00,19.2,8.8,30.01,NNW,348,0.0,6.0,63,0.00,,,0.00,meteohub,2016-02-10 14:04:00,
2016-02-10 09:09:00,19.9,9.7,30.02,East,91,1.0,6.0,64,0.00,,,0.00,meteohub,2016-02-10 14:09:00,
2016-02-10 09:14:00,19.8,9.1,30.01,ENE,64,1.0,6.0,63,0.00,,,0.00,meteohub,2016-02-10 14:14:00,
2016-02-10 09:19:00,19.8,9.1,30.02,ENE,74,0.0,6.0,63,0.00,,,0.00,meteohub,2016-02-10 14:19:00,
2016-02-10 09:24:00,19.9,9.7,30.02,WSW,255,0.0,6.0,64,0.00,,,0.00,meteohub,2016-02-10 14:24:00,
2016-02-10 09:29:00,20.1,9.9,30.02,NNW,338,0.0,6.0,64,0.00,,,0.00,meteohub,2016-02-10 14:29:00,
2016-02-10 09:35:00,20.1,9.1,30.02,NW,319,1.0,6.0,62,0.00,,,0.00,meteohub,2016-02-10 14:35:00,
2016-02-10 09:40:00,20.7,9.7,30.02,WNW,297,2.0,5.0,62,0.00,,,0.00,meteohub,2016-02-10 14:40:00,
2016-02-10 09:45:00,21.4,9.3,30.02,West,260,2.0,5.0,59,0.00,,,0.00,meteohub,2016-02-10 14:45:00,
2016-02-10 09:50:00,21.6,8.6,30.02,NNE,25,5.0,5.0,57,0.00,,,0.00,meteohub,2016-02-10 14:50:00,
2016-02-10 09:55:00,21.4,8.6,30.02,SSE,153,6.0,8.0,57,0.00,,,0.00,meteohub,2016-02-10 14:55:00,
2016-02-10 10:00:00,21.4,8.1,30.02,WSW,249,7.0,9.0,56,0.00,,,0.00,meteohub,2016-02-10 15:00:00,
2016-02-10 10:05:00,21.6,8.6,30.02,NW,314,0.0,9.0,57,0.00,,,0.00,meteohub,2016-02-10 15:05:00,
2016-02-10 10:10:00,21.7,8.4,30.02,WSW,257,3.0,9.0,56,0.00,,,0.00,meteohub,2016-02-10 15:10:00,
2016-02-10 10:15:00,21.4,7.7,30.02,WSW,255,1.0,8.0,55,0.00,,,0.00,meteohub,2016-02-10 15:15:00,
2016-02-10 10:20:00,21.2,7.5,30.02,West,273,5.0,7.0,55,0.00,,,0.00,meteohub,2016-02-10 15:20:00,
2016-02-10 10:25:00,21.0,7.3,30.02,WSW,238,2.0,12.0,55,0.00,,,0.00,meteohub,2016-02-10 15:25:00,
2016-02-10 10:30:00,21.2,7.5,30.02,WSW,250,6.0,12.0,55,0.00,,,0.00,meteohub,2016-02-10 15:30:00,
2016-02-10 10:35:00,21.4,7.7,30.03,WSW,246,2.0,12.0,55,0.00,,,0.00,meteohub,2016-02-10 15:35:00,
2016-02-10 10:40:00,21.6,7.5,30.03,West,276,5.0,12.0,54,0.00,,,0.00,meteohub,2016-02-10 15:40:00,
2016-02-10 10:45:00,21.9,8.2,30.03,NNE,27,0.0,12.0,55,0.00,,,0.00,meteohub,2016-02-10 15:45:00,
2016-02-10 10:50:00,21.9,7.3,30.04,South,186,5.0,12.0,53,0.00,,,0.00,meteohub,2016-02-10 15:50:00,
2016-02-10 10:55:00,21.9,7.9,30.04,West,281,2.0,12.0,54,0.00,,,0.00,meteohub,2016-02-10 15:55:00,
2016-02-10 11:00:00,22.3,7.7,30.04,NW,306,5.0,12.0,53,0.00,,,0.00,meteohub,2016-02-10 16:00:00,
2016-02-10 11:05:00,21.7,7.2,30.04,SSW,208,3.0,12.0,53,0.00,,,0.00,meteohub,2016-02-10 16:05:00,
2016-02-10 11:10:00,22.3,8.2,30.04,West,273,5.0,10.0,54,0.00,,,0.00,meteohub,2016-02-10 16:10:00,
2016-02-10 11:15:00,22.5,7.5,30.04,SW,225,6.0,11.0,52,0.00,,,0.00,meteohub,2016-02-10 16:15:00,
2016-02-10 11:20:00,22.8,8.2,30.04,South,191,2.0,11.0,53,0.00,,,0.00,meteohub,2016-02-10 16:20:00,
2016-02-10 11:26:00,22.8,7.9,30.04,WNW,284,9.0,12.0,52,0.00,,,0.00,meteohub,2016-02-10 16:26:00,
2016-02-10 11:31:00,23.5,8.4,30.04,SSW,208,6.0,12.0,52,0.00,,,0.00,meteohub,2016-02-10 16:31:00,
2016-02-10 11:36:00,23.7,8.2,30.04,WSW,247,2.0,12.0,51,0.00,,,0.00,meteohub,2016-02-10 16:36:00,
2016-02-10 11:41:00,23.7,7.3,30.04,WSW,245,7.0,12.0,49,0.00,,,0.00,meteohub,2016-02-10 16:41:00,
2016-02-10 11:46:00,23.2,6.8,30.04,West,263,5.0,13.0,49,0.00,,,0.00,meteohub,2016-02-10 16:46:00,
2016-02-10 11:51:00,23.4,7.0,30.04,ESE,105,2.0,24.0,49,0.00,,,0.00,meteohub,2016-02-10 16:51:00,
2016-02-10 11:56:00,23.4,6.6,30.04,SSE,165,3.0,24.0,48,0.00,,,0.00,meteohub,2016-02-10 16:56:00,
2016-02-10 12:01:00,23.2,6.8,30.04,WSW,255,2.0,12.0,49,0.00,,,0.00,meteohub,2016-02-10 17:01:00,
2016-02-10 12:06:00,23.0,5.7,30.04,WSW,252,4.0,12.0,47,0.00,,,0.00,meteohub,2016-02-10 17:06:00,
2016-02-10 12:11:00,22.6,6.4,30.04,West,262,5.0,12.0,49,0.00,,,0.00,meteohub,2016-02-10 17:11:00,
2016-02-10 12:16:00,23.0,5.7,30.04,SW,223,8.0,13.0,47,0.00,,,0.00,meteohub,2016-02-10 17:16:00,
2016-02-10 12:21:00,23.2,5.9,30.04,WSW,245,7.0,16.0,47,0.00,,,0.00,meteohub,2016-02-10 17:21:00,
2016-02-10 12:26:00,23.5,5.7,30.04,NW,316,4.0,16.0,46,0.00,,,0.00,meteohub,2016-02-10 17:26:00,
2016-02-10 12:31:00,23.4,5.5,30.04,WNW,302,7.0,16.0,46,0.00,,,0.00,meteohub,2016-02-10 17:31:00,
2016-02-10 12:41:00,24.8,5.5,30.04,WNW,297,5.0,12.0,43,0.00,,,0.00,meteohub,2016-02-10 17:41:00,
2016-02-10 12:46:00,24.3,4.5,30.04,WSW,257,9.0,11.0,42,0.00,,,0.00,meteohub,2016-02-10 17:46:00,
2016-02-10 12:51:00,23.7,4.5,30.04,WSW,250,4.0,15.0,43,0.00,,,0.00,meteohub,2016-02-10 17:51:00,
2016-02-10 12:56:00,24.4,5.7,30.04,West,278,2.0,15.0,44,0.00,,,0.00,meteohub,2016-02-10 17:56:00,
2016-02-10 13:01:00,25.0,5.7,30.04,WNW,294,4.0,15.0,43,0.00,,,0.00,meteohub,2016-02-10 18:01:00,
2016-02-10 13:06:00,25.7,5.7,30.04,NW,309,5.0,12.0,42,0.00,,,0.00,meteohub,2016-02-10 18:06:00,
2016-02-10 13:11:00,25.9,5.4,30.03,West,281,1.0,11.0,41,0.00,,,0.00,meteohub,2016-02-10 18:11:00,
2016-02-10 13:16:00,26.2,5.7,30.03,North,353,2.0,10.0,41,0.00,,,0.00,meteohub,2016-02-10 18:16:00,
2016-02-10 13:22:00,26.4,5.4,30.04,West,265,2.0,10.0,40,0.00,,,0.00,meteohub,2016-02-10 18:22:00,
2016-02-10 13:27:00,25.3,4.5,30.02,WSW,248,6.0,12.0,40,0.00,,,0.00,meteohub,2016-02-10 18:27:00,
2016-02-10 13:32:00,24.3,3.9,30.03,SSW,211,1.0,15.0,41,0.00,,,0.00,meteohub,2016-02-10 18:32:00,
2016-02-10 13:37:00,24.8,5.0,30.02,SW,236,2.0,16.0,42,0.00,,,0.00,meteohub,2016-02-10 18:37:00,
2016-02-10 13:42:00,25.0,4.6,30.02,West,280,9.0,16.0,41,0.00,,,0.00,meteohub,2016-02-10 18:42:00,
2016-02-10 13:47:00,25.2,4.3,30.02,SE,131,5.0,14.0,40,0.00,,,0.00,meteohub,2016-02-10 18:47:00,
2016-02-10 13:52:00,25.3,5.0,30.02,West,273,9.0,14.0,41,0.00,,,0.00,meteohub,2016-02-10 18:52:00,
2016-02-10 13:57:00,25.0,4.1,30.02,SSW,205,1.0,14.0,40,0.00,,,0.00,meteohub,2016-02-10 18:57:00,
2016-02-10 14:02:00,25.0,4.1,30.02,NW,311,0.0,16.0,40,0.00,,,0.00,meteohub,2016-02-10 19:02:00,
2016-02-10 14:07:00,25.5,3.9,30.03,WNW,284,9.0,16.0,39,0.00,,,0.00,meteohub,2016-02-10 19:07:00,
2016-02-10 14:12:00,25.0,3.6,30.03,West,270,7.0,15.0,39,0.00,,,0.00,meteohub,2016-02-10 19:12:00,
2016-02-10 14:17:00,24.6,3.2,30.03,WNW,283,12.0,21.0,39,0.00,,,0.00,meteohub,2016-02-10 19:17:00,
2016-02-10 14:22:00,24.6,3.2,30.04,WSW,245,10.0,23.0,39,0.00,,,0.00,meteohub,2016-02-10 19:22:00,
2016-02-10 14:27:00,25.0,3.6,30.04,SW,215,6.0,23.0,39,0.00,,,0.00,meteohub,2016-02-10 19:27:00,
2016-02-10 14:32:00,24.8,3.4,30.04,WSW,255,8.0,23.0,39,0.00,,,0.00,meteohub,2016-02-10 19:32:00,
2016-02-10 14:37:00,25.7,3.6,30.04,SSW,203,9.0,19.0,38,0.00,,,0.00,meteohub,2016-02-10 19:37:00,
2016-02-10 14:42:00,25.9,4.3,30.04,SW,228,11.0,16.0,39,0.00,,,0.00,meteohub,2016-02-10 19:42:00,
2016-02-10 14:47:00,25.3,3.9,30.04,SSE,162,3.0,16.0,39,0.00,,,0.00,meteohub,2016-02-10 19:47:00,
2016-02-10 14:52:00,25.2,3.7,30.04,West,269,7.0,16.0,39,0.00,,,0.00,meteohub,2016-02-10 19:52:00,
2016-02-10 14:57:00,25.2,4.3,30.04,WNW,295,5.0,14.0,40,0.00,,,0.00,meteohub,2016-02-10 19:57:00,
2016-02-10 15:02:00,25.3,4.5,30.04,NNW,327,1.0,13.0,40,0.00,,,0.00,meteohub,2016-02-10 20:02:00,
2016-02-10 15:07:00,26.2,5.2,30.04,SSE,162,5.0,11.0,40,0.00,,,0.00,meteohub,2016-02-10 20:07:00,
2016-02-10 15:12:00,26.2,4.6,30.04,NNW,341,5.0,10.0,39,0.00,,,0.00,meteohub,2016-02-10 20:12:00,
2016-02-10 15:17:00,25.9,4.3,30.04,NNW,334,1.0,11.0,39,0.00,,,0.00,meteohub,2016-02-10 20:17:00,
2016-02-10 15:22:00,25.9,4.8,30.04,West,281,5.0,12.0,40,0.00,,,0.00,meteohub,2016-02-10 20:22:00,
2016-02-10 15:27:00,25.9,3.7,30.04,SSW,201,6.0,12.0,38,0.00,,,0.00,meteohub,2016-02-10 20:27:00,
2016-02-10 15:32:00,25.9,4.3,30.04,NE,34,0.0,17.0,39,0.00,,,0.00,meteohub,2016-02-10 20:32:00,
2016-02-10 15:37:00,26.8,4.6,30.04,East,87,0.0,17.0,38,0.00,,,0.00,meteohub,2016-02-10 20:37:00,
2016-02-10 15:47:00,26.4,4.3,30.04,South,176,1.0,12.0,38,0.00,,,0.00,meteohub,2016-02-10 20:47:00,
2016-02-10 15:52:00,27.0,4.6,30.05,NNW,330,2.0,15.0,38,0.00,,,0.00,meteohub,2016-02-10 20:52:00,
2016-02-10 15:57:00,26.8,4.6,30.05,West,259,5.0,15.0,38,0.00,,,0.00,meteohub,2016-02-10 20:57:00,
2016-02-10 16:02:00,27.1,4.8,30.05,WNW,286,3.0,15.0,38,0.00,,,0.00,meteohub,2016-02-10 21:02:00,
2016-02-10 16:07:00,27.3,3.9,30.05,West,281,6.0,10.0,36,0.00,,,0.00,meteohub,2016-02-10 21:07:00,
2016-02-10 16:12:00,26.4,3.7,30.05,West,262,3.0,13.0,37,0.00,,,0.00,meteohub,2016-02-10 21:12:00,
2016-02-10 16:17:00,27.0,4.1,30.05,NNW,332,2.0,13.0,37,0.00,,,0.00,meteohub,2016-02-10 21:17:00,
2016-02-10 16:22:00,26.8,3.9,30.06,NNE,12,0.0,13.0,37,0.00,,,0.00,meteohub,2016-02-10 21:22:00,
2016-02-10 16:27:00,26.4,3.7,30.06,SW,227,2.0,14.0,37,0.00,,,0.00,meteohub,2016-02-10 21:27:00,
2016-02-10 16:32:00,26.4,4.3,30.06,North,0,2.0,14.0,38,0.00,,,0.00,meteohub,2016-02-10 21:32:00,
2016-02-10 16:37:00,26.4,3.7,30.06,West,262,9.0,12.0,37,0.00,,,0.00,meteohub,2016-02-10 21:37:00,
2016-02-10 16:42:00,25.9,3.2,30.06,West,279,3.0,16.0,37,0.00,,,0.00,meteohub,2016-02-10 21:42:00,
2016-02-10 16:47:00,25.9,3.7,30.06,ENE,70,2.0,16.0,38,0.00,,,0.00,meteohub,2016-02-10 21:47:00,
2016-02-10 16:52:00,26.1,4.5,30.06,West,278,5.0,16.0,39,0.00,,,0.00,meteohub,2016-02-10 21:52:00,
2016-02-10 16:57:00,26.1,3.9,30.06,NW,315,2.0,15.0,38,0.00,,,0.00,meteohub,2016-02-10 21:57:00,
2016-02-10 17:02:00,25.5,3.9,30.06,WSW,256,6.0,15.0,39,0.00,,,0.00,meteohub,2016-02-10 22:02:00,
2016-02-10 17:07:00,25.5,3.9,30.06,North,352,2.0,11.0,39,0.00,,,0.00,meteohub,2016-02-10 22:07:00,